Satellite: NOAA-11
Catalog number: 19531
Epoch time:      06201.24543412
Element set:     202
Inclination:      098.8267 deg
RA of node:       289.3068 deg
Eccentricity:    0.0010854
Arg of perigee:   255.1815 deg
Mean anomaly:     104.8180 deg
Mean motion:   14.14811728 rev/day
Decay rate:      -1.46e-06 rev/day^2
Epoch rev:           91921
Checksum:              283

Satellite: NOAA-12
Catalog number: 21263
Epoch time:      06201.51648303
Element set:     695
Inclination:      098.7324 deg
RA of node:       194.6609 deg
Eccentricity:    0.0012854
Arg of perigee:   356.0545 deg
Mean anomaly:     004.0538 deg
Mean motion:   14.25493680 rev/day
Decay rate:       1.41e-06 rev/day^2
Epoch rev:           78899
Checksum:              311

Satellite: MET-3/5
Catalog number: 21655
Epoch time:      06200.95691686
Element set:    0186
Inclination:      082.5518 deg
RA of node:       237.6355 deg
Eccentricity:    0.0012812
Arg of perigee:   325.1478 deg
Mean anomaly:     034.8803 deg
Mean motion:   13.17006831 rev/day
Decay rate:        5.1e-07 rev/day^2
Epoch rev:           71767
Checksum:              305

Satellite: MET-2/21
Catalog number: 22782
Epoch time:      06200.71894722
Element set:    0564
Inclination:      082.5491 deg
RA of node:       305.6453 deg
Eccentricity:    0.0024011
Arg of perigee:   089.0198 deg
Mean anomaly:     271.3721 deg
Mean motion:   13.83607805 rev/day
Decay rate:       1.00e-06 rev/day^2
Epoch rev:           65054
Checksum:              282

Satellite: OKEAN-4
Catalog number: 23317
Epoch time:      06200.68629022
Element set:    0002
Inclination:      082.5373 deg
RA of node:       246.6883 deg
Eccentricity:    0.0020584
Arg of perigee:   268.4379 deg
Mean anomaly:     091.4500 deg
Mean motion:   14.82377163 rev/day
Decay rate:     -.00000000 rev/day^2
Epoch rev:           63479
Checksum:              282

Satellite: NOAA-14
Catalog number: 23455
Epoch time:      06201.35221847
Element set:     197
Inclination:      099.0352 deg
RA of node:       259.9748 deg
Eccentricity:    0.0008724
Arg of perigee:   321.2439 deg
Mean anomaly:     038.8133 deg
Mean motion:   14.13672725 rev/day
Decay rate:       3.60e-06 rev/day^2
Epoch rev:           59575
Checksum:              313

Satellite: SICH-1
Catalog number: 23657
Epoch time:      06201.71569019
Element set:     804
Inclination:      082.5285 deg
RA of node:       026.6269 deg
Eccentricity:    0.0022442
Arg of perigee:   252.1399 deg
Mean anomaly:     107.7355 deg
Mean motion:   14.81373006 rev/day
Decay rate:       1.11e-06 rev/day^2
Epoch rev:           58695
Checksum:              296

Satellite: NOAA-15
Catalog number: 25338
Epoch time:      06201.80707425
Element set:     587
Inclination:      098.5169 deg
RA of node:       203.1035 deg
Eccentricity:    0.0009660
Arg of perigee:   278.4359 deg
Mean anomaly:     081.6213 deg
Mean motion:   14.24593674 rev/day
Decay rate:       1.25e-06 rev/day^2
Epoch rev:           42551
Checksum:              301

Satellite: RESURS
Catalog number: 25394
Epoch time:      06200.95506677
Element set:    0419
Inclination:      098.4919 deg
RA of node:       262.7383 deg
Eccentricity:    0.0002426
Arg of perigee:   074.1564 deg
Mean anomaly:     285.9881 deg
Mean motion:   14.24106645 rev/day
Decay rate:       -1.0e-08 rev/day^2
Epoch rev:           41706
Checksum:              307

Satellite: FENGYUN1
Catalog number: 25730
Epoch time:      06200.58060704
Element set:    0781
Inclination:      098.6263 deg
RA of node:       191.9035 deg
Eccentricity:    0.0015304
Arg of perigee:   050.5595 deg
Mean anomaly:     309.6911 deg
Mean motion:   14.11813434 rev/day
Decay rate:       -7.9e-07 rev/day^2
Epoch rev:           37058
Checksum:              285

Satellite: OKEAN-0
Catalog number: 25860
Epoch time:      06200.60533610
Element set:    0804
Inclination:      097.7319 deg
RA of node:       213.4263 deg
Eccentricity:    0.0001714
Arg of perigee:   050.3111 deg
Mean anomaly:     309.8248 deg
Mean motion:   14.73376472 rev/day
Decay rate:        2.4e-07 rev/day^2
Epoch rev:           37652
Checksum:              264

Satellite: NOAA-16
Catalog number: 26536
Epoch time:      06201.22923021
Element set:     963
Inclination:      099.0677 deg
RA of node:       168.2396 deg
Eccentricity:    0.0011157
Arg of perigee:   031.2340 deg
Mean anomaly:     328.9482 deg
Mean motion:   14.12356187 rev/day
Decay rate:        5.9e-07 rev/day^2
Epoch rev:           30024
Checksum:              286

Satellite: NOAA-17
Catalog number: 27453
Epoch time:      06201.34092481
Element set:     981
Inclination:      098.6193 deg
RA of node:       272.9076 deg
Eccentricity:    0.0011400
Arg of perigee:   343.5917 deg
Mean anomaly:     016.4899 deg
Mean motion:   14.23794095 rev/day
Decay rate:       -5.4e-07 rev/day^2
Epoch rev:           21149
Checksum:              313

